Location: Killarney Provincial Park Observatory
(46.0124°N, 81.4000°W)
Time: 04:28:47
(UTC-04:00)

Iridium 22 - Visible Passes

Search period start: 28 May 2017 00:00
Search period end: 07 June 2017 00:00
Orbit: 776 x 779 km, 86.4° (Epoch: 27 May)

Date Brightness Start Highest point End Pass type
(mag) Time Alt. Az. Time Alt. Az. Time Alt. Az.
28 May 7.0 01:53:13 20° ESE 01:55:31 28° E 01:59:54 10° NNE visible
28 May 6.2 03:33:41 25° SW 03:36:04 39° W 03:40:58 10° N visible
29 May 7.7 01:19:50 12° ESE 01:22:19 16° ENE 01:25:27 10° NE visible
29 May 5.5 03:00:18 36° SSW 03:02:25 69° W 03:07:39 10° N visible
30 May 5.7 02:26:54 38° SSE 02:28:54 69° E 02:34:05 10° N visible
30 May 7.4 04:07:23 12° WSW 04:10:10 17° WNW 04:13:28 10° NNW visible
31 May 6.5 01:53:30 28° SE 01:55:29 39° E 02:00:18 10° NNE visible
31 May 6.7 03:33:58 20° WSW 03:36:18 28° WNW 03:40:47 10° NNW visible
01 Jun 7.3 01:20:05 18° ESE 01:22:12 23° E 01:26:11 10° NNE visible
01 Jun 6.0 03:00:34 32° SW 03:02:35 48° W 03:07:38 10° N visible
02 Jun 7.8 00:46:46 10° E 00:49:02 13° ENE 00:51:20 10° NE visible
02 Jun 5.4 02:27:08 42° S 02:28:58 85° W 02:34:13 10° N visible
02 Jun 7.7 04:08:40 10° W 04:10:32 12° WNW 04:12:25 10° NW visible
03 Jun 5.9 01:53:43 37° SE 01:55:29 55° E 02:00:35 10° NNE visible
03 Jun 7.2 03:34:11 15° WSW 03:36:35 21° WNW 03:40:27 10° NNW visible
04 Jun 6.8 01:20:17 25° ESE 01:22:08 31° E 01:26:41 10° NNE visible
04 Jun 6.5 03:00:45 26° WSW 03:02:46 35° W 03:07:33 10° NNW visible
05 Jun 7.4 00:46:51 15° ESE 00:48:54 18° ENE 00:52:23 10° NE visible
05 Jun 5.7 02:27:19 39° SW 02:29:05 61° W 02:34:17 10° N visible
06 Jun 7.9 00:15:33 10° ENE 00:15:47 10° ENE 00:16:02 10° ENE visible
06 Jun 5.5 01:53:52 44° SSE 01:55:32 77° E 02:00:46 10° N visible
06 Jun 7.6 03:34:20 11° W 03:36:55 15° WNW 03:39:50 10° NW visible
